Terminal Aerodrome Forecast
Issued by NWS

Home | Current Version | Previous Version | Text Only | Print | Product List | Glossary On
Versions: 1 2 3 4 5 6 7 8 9 10 11 12 13 14 15
000
FTUS45 KRIW 222300
TAFRKS
TAF
KRKS 222324Z 2300/2324 28011KT P6SM FEW150
     FM230300 09010KT P6SM SKC
     FM231700 27016G26KT P6SM SCT110 BKN200=

USA.gov is the U.S. government's official web portal to all federal, state and local government web resources and services.